BREEZE-M R/B, 55842

Orbit data source: Space-Track

BREEZE-M R/B, 55842 is space debris in GEO originally from a launch on Sun, 12 Mar 2023 UTC launched from the Tyuratam Missile And Space Complex (TTMTR). Debris objects in space refer to the collection of defunct objects orbiting the Earth. Examples of debris include non-operational satellites, rocket bodies, and fragments generated from explosions, collisions, or faulty payload assembly.

Not visible in the next 10 days
Identifier
55842, 2023-031B
Orbit
GEO
Country
Flag of CISCIS
Related business
Manufacturer
Khrunichev
Mission
Spacecraft
Bus & Motor
BRIZ, Unknown motor
Mass
~1,600 kg wet, 1,600 kg dry
Launch date (UTC)
2023-03-12 (3 years ago)
Launch vehicle
Unknown
Launch site
Tyuratam Missile And Space Complex (TTMTR)
Object type
Payload
Rocket body
Debris
Shape & HBR
Cyl, 2.0 m
Radar Cross Section
15.135 m²

Expand to show TLE details & history
Last TLE update: 2 days ago

TLE from 2 days ago
0 BREEZE-M R/B
1 55842U 23031B   25349.04338984 -.00000208  00000-0  00000-0 0  9996
2 55842   2.3505  81.6875 0066534   5.8133 353.7380  0.98963648  9955
Epoch: 2025-12-15T01:02Z
TLE epoch observation values (Epoch: 2025-12-15T01:02:28.882Z)
Latitude
-0.00002°
Longitude
-18.42035°
Altitude
35,874.293 km
Speed
3.082 km/s
True Right ascension
05h 24m 35s
True Declination
0° 00' 00"
Sunlit
Object was in daylight at epoch
Visualization orbit readout
Latitude
Unknown
Longitude
Unknown
Altitude
Unknown
Speed
Unknown
Apparent Right ascension
Unknown
Apparent Declination
Unknown
Sunlit
N/A
Visualization observer readout
Local Sidereal Time
15:53:16
Azimuth
Unknown
Elevation
Unknown
Doppler factor
Unknown
Orbital elements
Apogee altitude
36,441.418 km
Perigee altitude
35,875.393 km
Semi-major axis
42,536.543 km
Eccentricity
0.00665
Inclination
2.3505°
RAAN
81.6875°
Arg. of periapsis
5.8133°
True anomaly
353.65415°
Mean anomaly
353.738°
Eccentric anomaly
353.69614°
Mean motion
0.2474 °/min
Orbital period
1,455.13 mins
BSTAR
0
Loading maneuver chart data...
Computing Atmospheric mass density...
Loading historical data...
Loading historical data...
Loading historical data...
Loading historical data...
Loading historical data...
Loading historical data...
Loading historical data...
Other satellites on launch #31 in the year 2023 (2023-03-12 UTC)

Documentation

Showing up to 5 results
|